| time (UTC) | temp C | wind direction | speed KPH | gust KPH | rain 1hr cm | rain 24hr cm | rain mn cm | humidity % | barometer mb |
| 20260509090129 | 0 | 315 | 41.8 | 38.6 | 0.00 | 0.00 | 0.00 | 1 | 1028.5 |
| 20260509085128 | 16 | 118 | 0.0 | 3.2 | 0.00 | 0.00 | 0.00 | 63 | 1025.9 |
| 20260509084127 | 17 | 114 | 0.0 | 4.8 | 0.00 | 0.00 | 0.00 | 63 | 1025.8 |
| 20260509083127 | 0 | 315 | 41.8 | 38.6 | 0.00 | 0.00 | 0.00 | 1 | 1028.5 |
| 20260509082128 | 17 | 108 | 1.6 | 6.4 | 0.00 | 0.00 | 0.00 | 61 | 1025.5 |
| 20260509081149 | 17 | 109 | 3.2 | 6.4 | 0.00 | 0.00 | 0.00 | 60 | 1025.4 |
| 20260509080150 | 17 | 111 | 3.2 | 9.7 | 0.00 | 0.00 | 0.00 | 58 | 1025.1 |
| 20260509075127 | 17 | 115 | 3.2 | 9.7 | 0.00 | 0.00 | 0.00 | 55 | 1025.0 |
| 20260509074128 | 0 | 315 | 41.8 | 38.6 | 0.00 | 0.00 | 0.00 | 1 | 1028.5 |
| 20260509073149 | 0 | 315 | 41.8 | 38.6 | 0.00 | 0.00 | 0.00 | 1 | 1028.5 |
| 20260509072128 | 19 | 0 | 0.0 | 0.0 | 0.00 | 0.00 | 0.00 | 45 | 1024.4 |
| 20260509071127 | 0 | 315 | 41.8 | 38.6 | 0.00 | 0.00 | 0.00 | 1 | 1027.5 |
| 20260509070128 | 0 | 315 | 41.8 | 38.6 | 0.00 | 0.00 | 0.00 | 1 | 1027.5 |
| 20260509065148 | 21 | 84 | 1.6 | 4.8 | 0.00 | 0.00 | 0.00 | 39 | 1024.1 |
| 20260509064128 | 21 | 24 | 0.0 | 4.8 | 0.00 | 0.00 | 0.00 | 38 | 1024.0 |
| 20260509063148 | 0 | 315 | 41.8 | 38.6 | 0.00 | 0.00 | 0.00 | 1 | 1027.5 |
| 20260509062148 | 0 | 315 | 41.8 | 38.6 | 0.00 | 0.00 | 0.00 | 1 | 1027.5 |
| 20260509062127 | 22 | 102 | 1.6 | 4.8 | 0.00 | 0.00 | 0.00 | 36 | 1023.9 |
| 20260509061127 | 0 | 315 | 41.8 | 38.6 | 0.00 | 0.00 | 0.00 | 1 | 1026.4 |
| 20260509060128 | 22 | 106 | 0.0 | 3.2 | 0.00 | 0.00 | 0.00 | 37 | 1023.8 |
| 20260509055127 | 0 | 315 | 41.8 | 38.6 | 0.00 | 0.00 | 0.00 | 1 | 1026.4 |
| 20260509054127 | 0 | 315 | 41.8 | 38.6 | 0.00 | 0.00 | 0.00 | 1 | 1026.4 |
| 20260509053148 | 0 | 315 | 41.8 | 38.6 | 0.00 | 0.00 | 0.00 | 1 | 1026.4 |
| 20260509052148 | 22 | 147 | 1.6 | 6.4 | 0.00 | 0.00 | 0.00 | 36 | 1023.6 |
| 20260509051127 | 0 | 315 | 41.8 | 38.6 | 0.00 | 0.00 | 0.00 | 1 | 1026.4 |
| 20260509050128 | 0 | 315 | 41.8 | 38.6 | 0.00 | 0.00 | 0.00 | 1 | 1026.4 |
| 20260509045128 | 0 | 315 | 41.8 | 38.6 | 0.00 | 0.00 | 0.00 | 1 | 1026.4 |
| 20260509044127 | 0 | 315 | 41.8 | 38.6 | 0.00 | 0.00 | 0.00 | 1 | 1026.4 |
| 20260509043148 | 0 | 315 | 41.8 | 38.6 | 0.00 | 0.00 | 0.00 | 1 | 1026.4 |
| 20260509042128 | 22 | 161 | 3.2 | 6.4 | 0.00 | 0.00 | 0.00 | 39 | 1023.5 |
| 20260509041127 | 22 | 182 | 4.8 | 9.7 | 0.00 | 0.00 | 0.00 | 39 | 1023.5 |
| 20260509040148 | 0 | 315 | 41.8 | 38.6 | 0.00 | 0.00 | 0.00 | 1 | 1026.4 |
| 20260509035148 | 0 | 315 | 41.8 | 38.6 | 0.00 | 0.00 | 0.00 | 1 | 1027.5 |
| 20260509034128 | 22 | 81 | 1.6 | 8.0 | 0.00 | 0.00 | 0.00 | 40 | 1023.8 |
| 20260509033128 | 22 | 111 | 4.8 | 11.3 | 0.00 | 0.00 | 0.00 | 38 | 1023.9 |
| 20260509032128 | 0 | 315 | 41.8 | 38.6 | 0.00 | 0.00 | 0.00 | 1 | 1027.5 |
| 20260509031127 | 22 | 163 | 3.2 | 9.7 | 0.00 | 0.00 | 0.00 | 40 | 1024.1 |
| 20260509030127 | 21 | 175 | 3.2 | 8.0 | 0.00 | 0.00 | 0.00 | 42 | 1024.2 |
| 20260509025127 | 0 | 315 | 41.8 | 38.6 | 0.00 | 0.00 | 0.00 | 1 | 1028.5 |
| 20260509024127 | 22 | 116 | 4.8 | 11.3 | 0.00 | 0.00 | 0.00 | 42 | 1024.6 |
| 20260509023148 | 20 | 120 | 3.2 | 11.3 | 0.00 | 0.00 | 0.00 | 44 | 1024.7 |
| 20260509022127 | 0 | 315 | 41.8 | 38.6 | 0.00 | 0.00 | 0.00 | 1 | 1028.5 |
| 20260509021148 | 0 | 315 | 41.8 | 38.6 | 0.00 | 0.00 | 0.00 | 1 | 1028.5 |
| 20260509020128 | 0 | 315 | 41.8 | 38.6 | 0.00 | 0.00 | 0.00 | 1 | 1028.5 |
| 20260509015128 | 20 | 148 | 3.2 | 8.0 | 0.00 | 0.00 | 0.00 | 46 | 1025.4 |
| 20260509014127 | 21 | 173 | 4.8 | 11.3 | 0.00 | 0.00 | 0.00 | 47 | 1025.5 |
| 20260509013127 | 20 | 190 | 3.2 | 8.0 | 0.00 | 0.00 | 0.00 | 47 | 1025.6 |
| 20260509012126 | 0 | 315 | 41.8 | 38.6 | 0.00 | 0.00 | 0.00 | 1 | 1029.5 |
| 20260509011148 | 19 | 229 | 0.0 | 4.8 | 0.00 | 0.00 | 0.00 | 51 | 1025.8 |
| 20260509010127 | 19 | 282 | 3.2 | 9.7 | 0.00 | 0.00 | 0.00 | 52 | 1026.0 |
| 20260509005127 | 18 | 304 | 3.2 | 11.3 | 0.00 | 0.00 | 0.00 | 52 | 1026.1 |
| 20260509004127 | 18 | 333 | 4.8 | 14.5 | 0.00 | 0.00 | 0.00 | 54 | 1026.2 |
| 20260509003148 | 0 | 315 | 41.8 | 38.6 | 0.00 | 0.00 | 0.00 | 1 | 1029.5 |
| 20260509002127 | 17 | 300 | 4.8 | 12.9 | 0.00 | 0.00 | 0.00 | 55 | 1026.5 |
| 20260509001127 | 0 | 315 | 41.8 | 38.6 | 0.00 | 0.00 | 0.00 | 1 | 1029.5 |
| 20260509000128 | 16 | 309 | 4.8 | 14.5 | 0.00 | 0.00 | 0.00 | 58 | 1026.6 |
| 20260508235126 | 16 | 304 | 6.4 | 12.9 | 0.00 | 0.00 | 0.00 | 61 | 1026.7 |
| 20260508234127 | 15 | 323 | 6.4 | 16.1 | 0.00 | 0.00 | 0.00 | 62 | 1026.7 |
| 20260508233127 | 15 | 316 | 6.4 | 12.9 | 0.00 | 0.00 | 0.00 | 64 | 1026.9 |
| 20260508232126 | 0 | 315 | 41.8 | 38.6 | 0.00 | 0.00 | 0.00 | 1 | 1029.5 |
| 20260508231127 | 0 | 315 | 41.8 | 38.6 | 0.00 | 0.00 | 0.00 | 1 | 1029.5 |
| 20260508230126 | 13 | 345 | 4.8 | 11.3 | 0.00 | 0.00 | 0.00 | 67 | 1027.0 |
| 20260508225147 | 0 | 315 | 41.8 | 38.6 | 0.00 | 0.00 | 0.00 | 1 | 1029.5 |
| 20260508225126 | 13 | 334 | 6.4 | 12.9 | 0.00 | 0.00 | 0.00 | 68 | 1026.9 |
| 20260508224127 | 0 | 315 | 41.8 | 38.6 | 0.00 | 0.00 | 0.00 | 1 | 1029.5 |
| 20260508223127 | 0 | 315 | 41.8 | 38.6 | 0.00 | 0.00 | 0.00 | 1 | 1029.5 |
| 20260508222126 | 12 | 336 | 6.4 | 9.7 | 0.00 | 0.00 | 0.00 | 72 | 1026.6 |
| 20260508221148 | 11 | 332 | 4.8 | 9.7 | 0.00 | 0.00 | 0.00 | 74 | 1026.6 |
| 20260508220126 | 11 | 323 | 1.6 | 6.4 | 0.00 | 0.00 | 0.00 | 74 | 1026.5 |
| 20260508215126 | 11 | 312 | 0.0 | 4.8 | 0.00 | 0.00 | 0.00 | 76 | 1026.3 |
| 20260508214126 | 10 | 324 | 0.0 | 3.2 | 0.00 | 0.00 | 0.00 | 78 | 1026.2 |
| 20260508213147 | 9 | 0 | 0.0 | 0.0 | 0.00 | 0.00 | 0.00 | 81 | 1026.2 |
| 20260508212147 | 0 | 315 | 41.8 | 38.6 | 0.00 | 0.00 | 0.00 | 1 | 1028.5 |
| 20260508211127 | 0 | 315 | 41.8 | 38.6 | 0.00 | 0.00 | 0.00 | 1 | 1028.5 |
| 20260508210148 | 7 | 0 | 0.0 | 0.0 | 0.00 | 0.00 | 0.00 | 84 | 1025.9 |
| 20260508205126 | 7 | 0 | 0.0 | 0.0 | 0.00 | 0.00 | 0.00 | 86 | 1025.7 |
| 20260508204127 | 0 | 315 | 41.8 | 38.6 | 0.00 | 0.00 | 0.00 | 1 | 1027.5 |
| 20260508203127 | 0 | 315 | 41.8 | 38.6 | 0.00 | 0.00 | 0.00 | 1 | 1027.5 |
| 20260508202148 | 7 | 5 | 0.0 | 3.2 | 0.00 | 0.00 | 0.00 | 83 | 1025.2 |
| 20260508201126 | 7 | 4 | 0.0 | 4.8 | 0.00 | 0.00 | 0.00 | 85 | 1025.0 |
| 20260508200127 | 0 | 315 | 41.8 | 38.6 | 0.00 | 0.00 | 0.00 | 1 | 1026.4 |
| 20260508195126 | 7 | 351 | 0.0 | 3.2 | 0.00 | 0.00 | 0.00 | 83 | 1025.0 |
| 20260508194127 | 0 | 315 | 41.8 | 38.6 | 0.00 | 0.00 | 0.00 | 1 | 1026.4 |
| 20260508193127 | 0 | 315 | 41.8 | 38.6 | 0.00 | 0.00 | 0.00 | 1 | 1026.4 |
| 20260508192126 | 7 | 0 | 0.0 | 0.0 | 0.00 | 0.00 | 0.00 | 83 | 1024.5 |
| 20260508191127 | 7 | 0 | 0.0 | 0.0 | 0.00 | 0.00 | 0.00 | 84 | 1024.4 |
| 20260508190127 | 0 | 315 | 41.8 | 38.6 | 0.00 | 0.00 | 0.00 | 1 | 1026.4 |
| 20260508185126 | 0 | 315 | 41.8 | 38.6 | 0.00 | 0.00 | 0.00 | 1 | 1026.4 |
| 20260508184126 | 8 | 0 | 0.0 | 0.0 | 0.00 | 0.00 | 0.00 | 83 | 1024.1 |
| 20260508183126 | 0 | 315 | 41.8 | 38.6 | 0.00 | 0.00 | 0.00 | 1 | 1026.4 |
| 20260508182127 | 8 | 0 | 0.0 | 0.0 | 0.00 | 0.00 | 0.00 | 82 | 1024.1 |
| 20260508181127 | 0 | 315 | 41.8 | 38.6 | 0.00 | 0.00 | 0.00 | 1 | 1026.4 |
| 20260508180127 | 8 | 0 | 0.0 | 0.0 | 0.00 | 0.00 | 0.00 | 82 | 1024.0 |
| 20260508175126 | 0 | 315 | 41.8 | 38.6 | 0.00 | 0.00 | 0.00 | 1 | 1026.4 |
| 20260508174147 | 0 | 315 | 41.8 | 38.6 | 0.00 | 0.00 | 0.00 | 1 | 1026.4 |
| 20260508173126 | 0 | 315 | 41.8 | 38.6 | 0.00 | 0.00 | 0.00 | 1 | 1026.4 |
| 20260508172126 | 0 | 315 | 41.8 | 38.6 | 0.00 | 0.00 | 0.00 | 1 | 1026.4 |
| 20260508171126 | 8 | 45 | 0.0 | 3.2 | 0.00 | 0.00 | 0.00 | 79 | 1023.9 |
| 20260508170127 | 8 | 45 | 1.6 | 4.8 | 0.00 | 0.00 | 0.00 | 80 | 1023.9 |
| 20260508165126 | 0 | 315 | 41.8 | 38.6 | 0.00 | 0.00 | 0.00 | 1 | 1026.4 |
| 20260508164126 | 8 | 0 | 0.0 | 0.0 | 0.00 | 0.00 | 0.00 | 78 | 1023.9 |
| 20260508163126 | 0 | 315 | 41.8 | 38.6 | 0.00 | 0.00 | 0.00 | 1 | 1026.4 |
| 20260508162146 | 10 | 307 | 4.8 | 8.0 | 0.00 | 0.00 | 0.00 | 72 | 1023.8 |
| 20260508161147 | 0 | 315 | 41.8 | 38.6 | 0.00 | 0.00 | 0.00 | 1 | 1026.4 |
| 20260508160127 | 0 | 315 | 41.8 | 38.6 | 0.00 | 0.00 | 0.00 | 1 | 1026.4 |
| 20260508155126 | 0 | 315 | 41.8 | 38.6 | 0.00 | 0.00 | 0.00 | 1 | 1026.4 |
| 20260508154147 | 0 | 315 | 41.8 | 38.6 | 0.00 | 0.00 | 0.00 | 1 | 1026.4 |
| 20260508154126 | 10 | 29 | 0.0 | 3.2 | 0.00 | 0.00 | 0.00 | 76 | 1023.8 |
| 20260508153126 | 10 | 0 | 0.0 | 0.0 | 0.00 | 0.00 | 0.00 | 76 | 1023.9 |
| 20260508152126 | 10 | 104 | 0.0 | 0.0 | 0.00 | 0.00 | 0.00 | 75 | 1023.9 |
| 20260508151126 | 10 | 353 | 1.6 | 3.2 | 0.00 | 0.00 | 0.00 | 73 | 1023.9 |
| 20260508150148 | 0 | 315 | 41.8 | 38.6 | 0.00 | 0.00 | 0.00 | 1 | 1026.4 |
| 20260508145126 | 12 | 328 | 4.8 | 12.9 | 0.00 | 0.00 | 0.00 | 69 | 1023.5 |
| 20260508144126 | 12 | 327 | 3.2 | 8.0 | 0.00 | 0.00 | 0.00 | 68 | 1023.6 |
| 20260508143126 | 0 | 315 | 41.8 | 38.6 | 0.00 | 0.00 | 0.00 | 1 | 1026.4 |
| 20260508142125 | 0 | 315 | 41.8 | 38.6 | 0.00 | 0.00 | 0.00 | 1 | 1026.4 |
| 20260508141125 | 12 | 314 | 9.7 | 14.5 | 0.00 | 0.00 | 0.00 | 67 | 1023.5 |
| 20260508140128 | 0 | 315 | 41.8 | 38.6 | 0.00 | 0.00 | 0.00 | 1 | 1026.4 |
| 20260508135126 | 0 | 315 | 41.8 | 38.6 | 0.00 | 0.00 | 0.00 | 1 | 1026.4 |
| 20260508134147 | 12 | 314 | 8.0 | 16.1 | 0.00 | 0.00 | 0.00 | 65 | 1023.5 |
| 20260508133126 | 0 | 315 | 41.8 | 38.6 | 0.00 | 0.00 | 0.00 | 1 | 1026.4 |
| 20260508132126 | 0 | 315 | 41.8 | 38.6 | 0.00 | 0.00 | 0.00 | 1 | 1026.4 |
| 20260508131125 | 12 | 317 | 8.0 | 16.1 | 0.00 | 0.00 | 0.00 | 66 | 1023.3 |
| 20260508130126 | 12 | 321 | 8.0 | 14.5 | 0.00 | 0.00 | 0.00 | 66 | 1023.4 |
| 20260508125126 | 0 | 315 | 41.8 | 38.6 | 0.00 | 0.00 | 0.00 | 1 | 1025.4 |
| 20260508124126 | 0 | 315 | 41.8 | 38.6 | 0.00 | 0.00 | 0.00 | 1 | 1026.4 |
| 20260508123125 | 12 | 338 | 4.8 | 9.7 | 0.00 | 0.00 | 0.00 | 68 | 1023.6 |
| 20260508122125 | 11 | 7 | 3.2 | 6.4 | 0.00 | 0.00 | 0.00 | 68 | 1023.8 |
| 20260508121125 | 0 | 315 | 41.8 | 38.6 | 0.00 | 0.00 | 0.00 | 1 | 1026.4 |
| 20260508120125 | 12 | 303 | 1.6 | 4.8 | 0.00 | 0.00 | 0.00 | 64 | 1023.9 |
| 20260508115126 | 13 | 312 | 3.2 | 6.4 | 0.00 | 0.00 | 0.00 | 61 | 1023.7 |
| 20260508114125 | 13 | 313 | 4.8 | 8.0 | 0.00 | 0.00 | 0.00 | 61 | 1023.7 |
| 20260508113125 | 0 | 315 | 41.8 | 38.6 | 0.00 | 0.00 | 0.00 | 1 | 1026.4 |
| 20260508112125 | 0 | 315 | 41.8 | 38.6 | 0.00 | 0.00 | 0.00 | 1 | 1026.4 |
| 20260508111125 | 0 | 315 | 41.8 | 38.6 | 0.00 | 0.00 | 0.00 | 1 | 1026.4 |
| 20260508110126 | 14 | 304 | 3.2 | 4.8 | 0.00 | 0.00 | 0.00 | 58 | 1023.3 |
| 20260508105125 | 0 | 315 | 41.8 | 38.6 | 0.00 | 0.00 | 0.00 | 1 | 1026.4 |
| 20260508104125 | 0 | 315 | 41.8 | 38.6 | 0.00 | 0.00 | 0.00 | 1 | 1025.4 |
| 20260508103125 | 0 | 315 | 41.8 | 38.6 | 0.00 | 0.00 | 0.00 | 1 | 1025.4 |
| 20260508102125 | 0 | 315 | 41.8 | 38.6 | 0.00 | 0.00 | 0.00 | 1 | 1025.4 |
| 20260508101125 | 0 | 315 | 41.8 | 38.6 | 0.00 | 0.00 | 0.00 | 1 | 1025.4 |
| 20260508100126 | 0 | 315 | 41.8 | 38.6 | 0.00 | 0.00 | 0.00 | 1 | 1025.4 |
| 20260508095125 | 0 | 315 | 41.8 | 38.6 | 0.00 | 0.00 | 0.00 | 1 | 1025.4 |
| 20260508094125 | 15 | 217 | 0.0 | 0.0 | 0.00 | 0.00 | 0.00 | 55 | 1022.7 |
| 20260508093146 | 15 | 221 | 1.6 | 8.0 | 0.00 | 0.00 | 0.00 | 54 | 1022.4 |
| 20260508092125 | 0 | 315 | 41.8 | 38.6 | 0.00 | 0.00 | 0.00 | 1 | 1024.4 |
| 20260508091125 | 0 | 315 | 41.8 | 38.6 | 0.00 | 0.00 | 0.00 | 1 | 1024.4 |